Regional Weather Roundup
Issued by NWS Goodland, KS

Home | Current Version | Previous Version | Graphics & Text | Print | Product List | Glossary On
Versions: 1 2 3 4 5 6 7 8 9 10 11 12 13 14 15 16 17 18 19 20 21 22 23 24 25 26 27 28 29 30 31 32 33 34 35 36 37 38 39 40 41 42 43 44 45 46 47 48 49 50
000
ASUS43 KGLD 111908
RWRGLD

GOODLAND FORECAST AREA HOURLY WEATHER ROUNDUP
NATIONAL WEATHER SERVICE GOODLAND KS
1200 PM MST MON DEC 11 2017

...OFFICIAL OBSERVATIONS...

CITY           SKY/WX    TMP DP  RH WIND       PRES   REMARKS
GOODLAND KS    SUNNY     57  12  17 N38G49    30.24F
HILL CITY KS   MOSUNNY   58  14  17 NW26G35   30.19S
IMPERIAL NEB   SUNNY     52  13  21 NW28G38   30.22F
MCCOOK NEB     SUNNY     56  10  16 N37G47    30.19F
AKRON CO       SUNNY     53   9  17 N25G40    30.33F
BURLINGTON CO  SUNNY     56  11  16 N29G38    30.29F
LIMON CO       SUNNY     54   0  11 N17       30.34F
$$

...UNOFFICIAL OBSERVATIONS...

CITY           SKY/WX    TMP DP  RH WIND       PRES   REMARKS
COLBY KS       SUNNY     57  21  24 NW28G37   30.23S
LENORA KS        N/A     56  32  40 N14         N/A
NORTON KS      SUNNY     57   3  11 NW28G41   30.15
SHARON SPRINGS   N/A     59  14  17 N26G35      N/A
TRENTON NEB      N/A     54  32  43 NW12        N/A
KIT CARSON CO    N/A     57  15  19 MISG        N/A
YUMA CO        FAIR      52  12  20 NW24G43   30.30S
$$



USA.gov is the U.S. government's official web portal to all federal, state and local government web resources and services.